LAGEOS 2

Last updated on Fri Oct 17 2025 00:03:38 GMT+0000 (Coordinated Universal Time)

1 22195U 92070B 25274.43782847 -.00000009 00000+0 00000+0 0 9998 2 22195 52.6563 70.1545 0137774 74.3817 309.6932 6.47293810778676
UTC large
Height (km)
Speed (km/s)
/
Latitude / Longitude
Inclination (degrees)
Orbital Period (minutes)
Azimuth
Elevation
Range (km)
Doppler Factor

Next 0 passes for location: London (51.5072 / 0.1276)

Sorry there are no passes over London.